User: anonymous
Location: Mentone
(34.5413°N, 85.5351°W)
Time: 04:42:50
(UTC-05:00)
Language:

Cosmos 1703 - Orbit

View from above orbital plane
View from above orbital plane
View from above satellite
View from above satellite

Ground track
Ground track

The orbit data is extracted from the following two-line orbital elements,

1 16262U 85108A   14292.69949963  .00004235  00000-0  28584-3 0  5419
2 16262 082.4901 121.5557 0013226 047.3859 312.8481 15.06312369572387
Epoch (UTC): 19 October 2014 16:47:16
Eccentricity: 0.0013226
inclination: 82.4901°
perigee height: 538 km
apogee height: 556 km
right ascension of ascending node: 121.5557°
argument of perigee: 47.3859°
revolutions per day: 15.06312369
mean anomaly at epoch: 312.8481°
orbit number at epoch: 57238

The dashed part of the orbit path shows where the satellite is in the earth's shadow,  

DLR